CST,Max TemperatureF,Mean TemperatureF,Min TemperatureF,Max Dew PointF,MeanDew PointF,Min DewpointF,Max Humidity, Mean Humidity, Min Humidity, Max Sea Level PressureIn, Mean Sea Level PressureIn, Min Sea Level PressureIn, Max VisibilityMiles, Mean VisibilityMiles, Min VisibilityMiles, Max Wind SpeedMPH, Mean Wind SpeedMPH, Max Gust SpeedMPH,PrecipitationIn, CloudCover, Events, WindDirDegrees
2012-12-1,82,71,60,59,54,46,94,61,28,30.03,29.98,29.92,10,10,10,21,13,31,0.00,0,,202
2012-12-2,82,70,59,61,56,52,100,64,35,30.10,30.02,29.96,10,10,5,22,11,29,0.00,0,,195
2012-12-3,82,72,62,59,56,32,88,62,32,30.02,29.93,29.86,10,10,10,22,14,43,0.00,0,,206
2012-12-4,68,60,50,39,36,23,62,47,25,30.30,30.17,30.03,10,10,10,17,8,22,0.00,0,,345
2012-12-5,59,46,33,36,27,23,75,55,25,30.31,30.20,30.00,10,10,10,14,3,20,0.00,0,,163
2012-12-6,78,64,50,41,37,30,71,49,20,29.98,29.88,29.76,10,10,10,22,11,24,0.00,0,,193
2012-12-7,64,53,42,37,37,32,71,50,37,29.89,29.85,29.81,10,10,10,7,3,,0.00,0,,313
2012-12-8,73,60,46,50,43,37,82,68,44,29.93,29.87,29.78,10,10,10,12,3,20,0.00,5,,77
2012-12-9,60,48,35,55,39,10,88,64,31,30.13,29.91,29.76,10,9,5,24,10,34,0.00,2,,327
2012-12-10,39,32,24,28,18,10,93,60,35,30.23,30.19,30.10,10,10,0,22,13,29,0.00,2,Snow,339
2012-12-11,53,36,19,21,15,10,86,51,19,30.20,30.12,30.07,10,10,10,8,4,,0.00,0,,156
2012-12-12,62,45,28,21,16,10,55,33,18,30.25,30.18,30.11,10,10,10,17,7,24,0.00,0,,171
2012-12-13,66,54,41,45,29,21,55,39,27,30.23,30.15,30.09,10,10,10,17,11,24,0.00,2,,175
2012-12-14,64,60,55,59,48,37,94,69,51,30.11,29.95,29.76,10,10,7,25,12,37,0.12,7,Rain,176
2012-12-15,69,60,50,37,32,28,54,39,21,29.94,29.88,29.84,10,10,10,18,11,30,0.00,0,,242
2012-12-16,71,61,51,36,34,32,54,39,23,29.86,29.80,29.73,10,10,10,20,9,25,0.00,0,,246
2012-12-17,64,50,37,36,28,21,87,45,20,29.96,29.88,29.82,10,9,2,15,10,21,0.00,0,,275
2012-12-18,77,60,44,28,28,25,53,36,14,29.86,29.80,29.73,10,10,10,15,9,,0.00,0,,220
2012-12-19,80,61,41,59,41,12,83,47,14,30.04,29.69,29.56,10,9,2,33,16,44,0.00,2,,222
2012-12-20,51,42,32,21,11,0,52,34,12,30.44,30.33,30.06,10,10,10,30,17,43,0.00,0,,310
2012-12-21,66,46,26,19,8,3,60,26,8,30.45,30.35,30.27,10,10,10,13,7,20,0.00,0,,200
2012-12-22,64,50,37,45,25,7,63,35,20,30.26,30.14,30.00,10,10,10,25,10,33,0.00,0,,199
2012-12-23,60,50,37,45,31,21,72,47,22,30.00,29.92,29.85,10,10,10,15,9,23,0.00,0,,251
2012-12-24,53,40,28,27,24,21,80,54,28,30.06,29.92,29.75,10,10,10,12,3,,0.00,1,,39
2012-12-25,44,35,26,34,25,16,93,72,43,30.24,29.93,29.65,10,8,2,24,12,39,0.02,7,Rain-Snow-Thunderstorm,354
2012-12-26,32,26,21,23,18,12,80,68,55,30.31,30.20,30.07,10,10,10,16,9,26,0.00,3,,7
2012-12-27,50,38,26,43,27,21,100,67,40,30.05,29.91,29.81,10,10,5,14,6,17,0.00,1,,159
2012-12-28,44,35,26,45,31,19,100,85,60,30.24,30.05,29.85,10,6,0,16,6,23,0.00,5,Fog,342
2012-12-29,51,37,23,23,19,16,80,58,26,30.44,30.35,30.23,10,10,10,12,4,,0.00,0,,210
2012-12-30,50,41,32,32,23,16,75,53,28,30.38,30.27,30.15,10,10,10,18,11,25,0.00,3,Rain,152
2012-12-31,64,50,37,50,41,32,100,82,37,30.14,30.01,29.92,10,8,2,17,8,24,0.10,6,Rain,136